Terminal Aerodrome Forecast
Issued by NWS Tampa Bay Area, FL

Home | Current Version | Previous Version | Text Only | Print | Product List | Glossary On
Versions: 1 2 3 4 5 6 7 8 9 10 11 12 13 14 15 16 17 18 19 20 21 22 23 24 25 26 27 28 29
000
FTUS42 KTBW 260500
TAFTPA
TAF
KTPA 260520Z 2606/2706 VRB04KT P6SM FEW035 SCT250
     FM261200 24004KT P6SM VCSH SCT025 SCT250
     FM261500 24006KT P6SM VCTS SCT035CB SCT250
     FM261900 25008KT P6SM SCT045 BKN250=

USA.gov is the U.S. government's official web portal to all federal, state and local government web resources and services.